User: anonymous   Login
Location: Unspecified
(0.0000°N, 0.0000°E)
Time: 10:38:34
(UTC+00:00)
Language:

ZHUHAI-1 OVS-02 - Orbit

View from above orbital plane
View from above orbital plane
View from above satellite
View from above satellite

Ground track
Ground track

The orbit data is extracted from the following two-line orbital elements,

1 43440U 18040B   19107.85749317 +.00000805 +00000-0 +42431-4 0  9991
2 43440 097.3681 187.3614 0012341 137.4358 359.1906 15.18283169054111
Epoch (UTC): 17 April 2019 20:34:47
Eccentricity: 0.0012341
inclination: 97.3681°
perigee height: 502 km
apogee height: 519 km
right ascension of ascending node: 187.3614°
argument of perigee: 137.4358°
revolutions per day: 15.18283169
mean anomaly at epoch: 359.1906°
orbit number at epoch: 5411

The dashed part of the orbit path shows where the satellite is in the earth's shadow,  

DLR